sat.trackr.live / text

‹ back to catalog

STARLINK-34306

NORAD 64259 · 2025-120D

PAYLOAD ACTIVE UNKNOWN

§ Identity

Operator
Country
US
Launch date
2025-06-04
Launch site
AFWTR
Launch vehicle
Mass (kg)
RCS (m²)

Purposes: comms

External: N2YO · Heavens-Above · Gunter

§ Orbital elements

Epoch: 2026-05-25T04:38:29.829120Z

Period
93.85 min
Inclination
53.1601°
Eccentricity
0.0000937
Mean motion
15.34412239 rev/d
Perigee alt
462.0 km
Apogee alt
463.3 km
Semi-major
6,840.8 km
B*
8.7729e-4
RAAN
118.8984°
Arg perigee
63.3694°
Mean anomaly
296.7404°
Rev number
5,561

§ Raw data

STARLINK-343061 64259U 25120D   26145.19340080  .00029392  00000+0  87729-3 0  99992 64259  53.1601 118.8984 0000937  63.3694 296.7404 15.34412239 55616

JSON: /api/v1/satellites/64259 · /tle

For live sub-satellite position, see the globe view (requires WebGL).

§ Visibility from observer

Set your observer location to see the next 7 days of passes ≥ 10°. The values pass through the URL so the page stays shareable.

No JS? Fill the form by hand. The geolocation button needs JavaScript.